ATLAS 5 CENTAUR DEB, 46869

Orbit data source: Space-Track

ATLAS 5 CENTAUR DEB, 46869 is space debris in HEO originally from a launch on Wed, 17 Oct 2018 UTC launched from the Air Force Eastern Test Range (AFETR). Debris objects in space refer to the collection of defunct objects orbiting the Earth. Examples of debris include non-operational satellites, rocket bodies, and fragments generated from explosions, collisions, or faulty payload assembly.

Loading next visibility...
Identifier
46869, 2018-079EA
Orbit
HEO
Country
Flag of USUS
Related business
Flag of USUnited Launch Alliance/Lockheed Martin (US)
Manufacturer
ULA Decatur
Mission
Spacecraft
Bus & Motor
Unknown
Mass
Unknown
Launch date (UTC)
2018-10-17 (7 years ago)
Launch vehicle
Unknown
Launch site
Air Force Eastern Test Range (AFETR)
Object type
Payload
Rocket body
Debris
Shape & HBR
Unknown
Radar Cross Section
RCS unknown

Expand to show TLE details & history
Last TLE update: 2 weeks ago

TLE from 2 weeks ago
0 ATLAS 5 CENTAUR DEB
1 46869U 18079EA  25227.02396659 -.00000162  00000-0  00000+0 0  9995
2 46869  12.9634  60.0411 4654040 267.8925  40.1217  1.83279122 32021
Epoch: 2025-08-15T00:34Z
TLE epoch observation values (Epoch: 2025-08-15T00:34:30.713Z)
Latitude
-0.00006°
Longitude
87.82087°
Altitude
16,096.664 km
Speed
4.619 km/s
True Right ascension
04h 00m 30s
True Declination
0° 00' 00"
Sunlit
Object was in daylight at epoch
Visualization orbit readout
Latitude
Unknown
Longitude
Unknown
Altitude
Unknown
Speed
Unknown
Apparent Right ascension
Unknown
Apparent Declination
Unknown
Sunlit
N/A
Visualization observer readout
Local Sidereal Time
11:04:40
Azimuth
Unknown
Elevation
Unknown
Doppler factor
Unknown
Orbital elements
Apogee altitude
34,956.698 km
Perigee altitude
8,701.28 km
Semi-major axis
28,207.126 km
Eccentricity
0.4654
Inclination
12.9634°
RAAN
60.0411°
Arg. of periapsis
267.8925°
True anomaly
92.06996°
Mean anomaly
40.1217°
Eccentric anomaly
64.11133°
Mean motion
0.45815 °/min
Orbital period
785.77 mins
BSTAR
0
Loading maneuver chart data...
Computing Atmospheric mass density...

Documentation

Showing up to 5 results
|